Year,Month,Day,Hour,Minute,Value (Times are PST for temperature in C)
2010,08,13,00,00,15.10
2010,08,13,00,01,15.10
2010,08,13,00,02,15.10
2010,08,13,00,03,15.10
2010,08,13,00,04,15.10
2010,08,13,00,05,15.10
2010,08,13,00,06,15.10
2010,08,13,00,07,15.10
2010,08,13,00,08,15.10
2010,08,13,00,09,15.10
2010,08,13,00,10,15.10
2010,08,13,00,11,15.10
2010,08,13,00,12,15.10
2010,08,13,00,13,15.10
2010,08,13,00,14,15.10
2010,08,13,00,15,15.10
2010,08,13,00,16,15.10
2010,08,13,00,17,15.10
2010,08,13,00,18,15.10
2010,08,13,00,19,15.10
2010,08,13,00,20,15.10
2010,08,13,00,21,15.10
2010,08,13,00,22,15.10
2010,08,13,00,23,15.10
2010,08,13,00,24,15.10
2010,08,13,00,25,15.10
2010,08,13,00,26,15.10
2010,08,13,00,27,15.10
2010,08,13,00,28,15.10
2010,08,13,00,29,15.10
2010,08,13,00,30,15.10
2010,08,13,00,31,15.10
2010,08,13,00,32,15.10
2010,08,13,00,33,15.10
2010,08,13,00,34,15.10
2010,08,13,00,35,15.10
2010,08,13,00,36,15.10
2010,08,13,00,37,15.10
2010,08,13,00,38,15.00
2010,08,13,00,39,15.00
2010,08,13,00,40,15.00
2010,08,13,00,41,15.00
2010,08,13,00,42,15.00
2010,08,13,00,43,15.00
2010,08,13,00,44,15.00
2010,08,13,00,45,15.00
2010,08,13,00,46,15.00
2010,08,13,00,47,15.00
2010,08,13,00,48,15.00
2010,08,13,00,49,15.00
2010,08,13,00,50,15.00
2010,08,13,00,51,15.00
2010,08,13,00,52,15.00
2010,08,13,00,53,15.00
2010,08,13,00,54,14.90
2010,08,13,00,55,14.90
2010,08,13,00,56,14.90
2010,08,13,00,57,14.90
2010,08,13,00,58,14.90
2010,08,13,00,59,14.90
2010,08,13,01,00,14.90
2010,08,13,01,01,14.90
2010,08,13,01,02,14.90
2010,08,13,01,03,14.90
2010,08,13,01,04,14.90
2010,08,13,01,05,14.90
2010,08,13,01,06,14.90
2010,08,13,01,07,14.90
2010,08,13,01,08,14.90
2010,08,13,01,09,14.90
2010,08,13,01,10,14.90
2010,08,13,01,11,14.80
2010,08,13,01,12,14.80
2010,08,13,01,13,14.80
2010,08,13,01,14,14.80
2010,08,13,01,15,14.80
2010,08,13,01,16,14.80
2010,08,13,01,17,14.80
2010,08,13,01,18,14.80
2010,08,13,01,19,14.80
2010,08,13,01,20,14.80
2010,08,13,01,21,14.80
2010,08,13,01,22,14.80
2010,08,13,01,23,14.80
2010,08,13,01,24,14.80
2010,08,13,01,25,14.80
2010,08,13,01,26,14.80
2010,08,13,01,27,14.80
2010,08,13,01,28,14.80
2010,08,13,01,29,14.80
2010,08,13,01,30,14.80
2010,08,13,01,31,14.80
2010,08,13,01,32,14.80
2010,08,13,01,33,14.80
2010,08,13,01,34,14.80
2010,08,13,01,35,14.80
2010,08,13,01,36,14.80
2010,08,13,01,37,14.80
2010,08,13,01,38,14.80
2010,08,13,01,39,14.80
2010,08,13,01,40,14.80
2010,08,13,01,41,14.80
2010,08,13,01,42,14.80
2010,08,13,01,43,14.80
2010,08,13,01,44,14.80
2010,08,13,01,45,14.80
2010,08,13,01,46,14.80
2010,08,13,01,47,14.80
2010,08,13,01,48,14.80
2010,08,13,01,49,14.80
2010,08,13,01,50,14.80
2010,08,13,01,51,14.80
2010,08,13,01,52,14.80
2010,08,13,01,53,14.80
2010,08,13,01,54,14.80
2010,08,13,01,55,14.80
2010,08,13,01,56,14.80
2010,08,13,01,57,14.80
2010,08,13,01,58,14.80
2010,08,13,01,59,14.80
2010,08,13,02,00,14.80
2010,08,13,02,01,14.80
2010,08,13,02,02,14.80
2010,08,13,02,03,14.80
2010,08,13,02,04,14.80
2010,08,13,02,05,14.80
2010,08,13,02,06,14.80
2010,08,13,02,07,14.80
2010,08,13,02,08,14.80
2010,08,13,02,09,14.80
2010,08,13,02,10,14.80
2010,08,13,02,11,14.80
2010,08,13,02,12,14.80
2010,08,13,02,13,14.80
2010,08,13,02,14,14.80
2010,08,13,02,15,14.80
2010,08,13,02,16,14.80
2010,08,13,02,17,14.80
2010,08,13,02,18,14.80
2010,08,13,02,19,14.80
2010,08,13,02,20,14.80
2010,08,13,02,21,14.80
2010,08,13,02,22,14.80
2010,08,13,02,23,14.90
2010,08,13,02,24,14.90
2010,08,13,02,25,14.90
2010,08,13,02,26,14.90
2010,08,13,02,27,14.90
2010,08,13,02,28,14.90
2010,08,13,02,29,14.90
2010,08,13,02,30,14.90
2010,08,13,02,31,14.90
2010,08,13,02,32,14.90
2010,08,13,02,33,14.90
2010,08,13,02,34,14.90
2010,08,13,02,35,14.90
2010,08,13,02,36,14.90
2010,08,13,02,37,14.90
2010,08,13,02,38,14.90
2010,08,13,02,39,14.90
2010,08,13,02,40,14.90
2010,08,13,02,41,14.90
2010,08,13,02,42,14.90
2010,08,13,02,43,14.90
2010,08,13,02,44,14.90
2010,08,13,02,45,14.90
2010,08,13,02,46,14.90
2010,08,13,02,47,14.90
2010,08,13,02,48,14.90
2010,08,13,02,49,14.90
2010,08,13,02,50,14.90
2010,08,13,02,51,14.90
2010,08,13,02,52,14.90
2010,08,13,02,53,14.90
2010,08,13,02,54,14.90
2010,08,13,02,55,14.90
2010,08,13,02,56,14.90
2010,08,13,02,57,14.90
2010,08,13,02,58,14.90
2010,08,13,02,59,14.90
2010,08,13,03,00,14.90
2010,08,13,03,01,14.90
2010,08,13,03,02,14.90
2010,08,13,03,03,14.90
2010,08,13,03,04,14.90
2010,08,13,03,05,14.80
2010,08,13,03,06,14.80
2010,08,13,03,07,14.80
2010,08,13,03,08,14.80
2010,08,13,03,09,14.80
2010,08,13,03,10,14.80
2010,08,13,03,11,14.80
2010,08,13,03,12,14.80
2010,08,13,03,13,14.80
2010,08,13,03,14,14.80
2010,08,13,03,15,14.80
2010,08,13,03,16,14.80
2010,08,13,03,17,14.80
2010,08,13,03,18,14.80
2010,08,13,03,19,14.80
2010,08,13,03,20,14.80
2010,08,13,03,21,14.80
2010,08,13,03,22,14.80
2010,08,13,03,23,14.80
2010,08,13,03,24,14.80
2010,08,13,03,25,14.80
2010,08,13,03,26,14.80
2010,08,13,03,27,14.80
2010,08,13,03,28,14.80
2010,08,13,03,29,14.80
2010,08,13,03,30,14.80
2010,08,13,03,31,14.80
2010,08,13,03,32,14.80
2010,08,13,03,33,14.80
2010,08,13,03,34,14.80
2010,08,13,03,35,14.80
2010,08,13,03,36,14.80
2010,08,13,03,37,14.80
2010,08,13,03,38,14.80
2010,08,13,03,39,14.80
2010,08,13,03,40,14.80
2010,08,13,03,41,14.80
2010,08,13,03,42,14.80
2010,08,13,03,43,14.80
2010,08,13,03,44,14.80
2010,08,13,03,45,14.80
2010,08,13,03,46,14.80
2010,08,13,03,47,14.80
2010,08,13,03,48,14.80
2010,08,13,03,49,14.80
2010,08,13,03,50,14.80
2010,08,13,03,51,14.80
2010,08,13,03,52,14.80
2010,08,13,03,53,14.80
2010,08,13,03,54,14.80
2010,08,13,03,55,14.80
2010,08,13,03,56,14.80
2010,08,13,03,57,14.90
2010,08,13,03,58,14.90
2010,08,13,03,59,14.90
2010,08,13,04,00,14.90
2010,08,13,04,01,14.90
2010,08,13,04,02,14.90
2010,08,13,04,03,14.90
2010,08,13,04,04,14.90
2010,08,13,04,05,14.90
2010,08,13,04,06,15.00
2010,08,13,04,07,15.00
2010,08,13,04,08,15.00
2010,08,13,04,09,15.00
2010,08,13,04,10,15.00
2010,08,13,04,11,15.00
2010,08,13,04,12,15.00
2010,08,13,04,13,15.00
2010,08,13,04,14,15.00
2010,08,13,04,15,15.10
2010,08,13,04,16,15.10
2010,08,13,04,17,15.10
2010,08,13,04,18,15.10
2010,08,13,04,19,15.10
2010,08,13,04,20,15.10
2010,08,13,04,21,15.10
2010,08,13,04,22,15.10
2010,08,13,04,23,15.10
2010,08,13,04,24,15.10
2010,08,13,04,25,15.10
2010,08,13,04,26,15.10
2010,08,13,04,27,15.10
2010,08,13,04,28,15.10
2010,08,13,04,29,15.10
2010,08,13,04,30,15.10
2010,08,13,04,31,15.10
2010,08,13,04,32,15.10
2010,08,13,04,33,15.10
2010,08,13,04,34,15.00
2010,08,13,04,35,15.00
2010,08,13,04,36,15.00
2010,08,13,04,37,15.00
2010,08,13,04,38,15.00
2010,08,13,04,39,15.00
2010,08,13,04,40,15.00
2010,08,13,04,41,15.10
2010,08,13,04,42,15.10
2010,08,13,04,43,15.10
2010,08,13,04,44,15.10
2010,08,13,04,45,15.10
2010,08,13,04,46,15.10
2010,08,13,04,47,15.20
2010,08,13,04,48,15.20
2010,08,13,04,49,15.20
2010,08,13,04,50,15.20
2010,08,13,04,51,15.20
2010,08,13,04,52,15.20
2010,08,13,04,53,15.20
2010,08,13,04,54,15.20
2010,08,13,04,55,15.20
2010,08,13,04,56,15.20
2010,08,13,04,57,15.20
2010,08,13,04,58,15.20
2010,08,13,04,59,15.20
2010,08,13,05,00,15.20
2010,08,13,05,01,15.20
2010,08,13,05,02,15.20
2010,08,13,05,03,15.20
2010,08,13,05,04,15.20
2010,08,13,05,05,15.20
2010,08,13,05,06,15.20
2010,08,13,05,07,15.20
2010,08,13,05,08,15.20
2010,08,13,05,09,15.20
2010,08,13,05,10,15.20
2010,08,13,05,11,15.20
2010,08,13,05,12,15.20
2010,08,13,05,13,15.20
2010,08,13,05,14,15.20
2010,08,13,05,15,15.20
2010,08,13,05,16,15.20
2010,08,13,05,17,15.10
2010,08,13,05,18,15.10
2010,08,13,05,19,15.10
2010,08,13,05,20,15.10
2010,08,13,05,21,15.10
2010,08,13,05,22,15.10
2010,08,13,05,23,15.10
2010,08,13,05,24,15.00
2010,08,13,05,25,15.00
2010,08,13,05,26,15.00
2010,08,13,05,27,15.00
2010,08,13,05,28,15.00
2010,08,13,05,29,15.00
2010,08,13,05,30,15.00
2010,08,13,05,31,15.00
2010,08,13,05,32,15.00
2010,08,13,05,33,14.90
2010,08,13,05,34,14.90
2010,08,13,05,35,14.90
2010,08,13,05,36,14.90
2010,08,13,05,37,14.90
2010,08,13,05,38,14.90
2010,08,13,05,39,14.90
2010,08,13,05,40,14.90
2010,08,13,05,41,14.90
2010,08,13,05,42,14.80
2010,08,13,05,43,14.80
2010,08,13,05,44,14.80
2010,08,13,05,45,14.80
2010,08,13,05,46,14.80
2010,08,13,05,47,14.80
2010,08,13,05,48,14.80
2010,08,13,05,49,14.80
2010,08,13,05,50,14.80
2010,08,13,05,51,14.80
2010,08,13,05,52,14.80
2010,08,13,05,53,14.80
2010,08,13,05,54,14.80
2010,08,13,05,55,14.80
2010,08,13,05,56,14.80
2010,08,13,05,57,14.80
2010,08,13,05,58,14.80
2010,08,13,05,59,14.80
2010,08,13,06,00,14.80
2010,08,13,06,01,14.80
2010,08,13,06,02,14.80
2010,08,13,06,03,14.80
2010,08,13,06,04,14.80
2010,08,13,06,05,14.80
2010,08,13,06,06,14.80
2010,08,13,06,07,14.80
2010,08,13,06,08,14.80
2010,08,13,06,09,14.80
2010,08,13,06,10,14.80
2010,08,13,06,11,14.80
2010,08,13,06,12,14.80
2010,08,13,06,13,14.80
2010,08,13,06,14,14.80
2010,08,13,06,15,14.80
2010,08,13,06,16,14.80
2010,08,13,06,17,14.80
2010,08,13,06,18,14.80
2010,08,13,06,19,14.80
2010,08,13,06,20,14.80
2010,08,13,06,21,14.80
2010,08,13,06,22,14.80
2010,08,13,06,23,14.80
2010,08,13,06,24,14.80
2010,08,13,06,25,14.80
2010,08,13,06,26,14.90
2010,08,13,06,27,14.90
2010,08,13,06,28,14.90
2010,08,13,06,29,14.90
2010,08,13,06,30,14.90
2010,08,13,06,31,14.90
2010,08,13,06,32,14.90
2010,08,13,06,33,14.90
2010,08,13,06,34,14.90
2010,08,13,06,35,14.90
2010,08,13,06,36,14.90
2010,08,13,06,37,14.90
2010,08,13,06,38,14.90
2010,08,13,06,39,14.90
2010,08,13,06,40,14.90
2010,08,13,06,41,14.90
2010,08,13,06,42,14.90
2010,08,13,06,43,14.90
2010,08,13,06,44,14.90
2010,08,13,06,45,14.90
2010,08,13,06,46,15.00
2010,08,13,06,47,15.00
2010,08,13,06,48,15.00
2010,08,13,06,49,15.10
2010,08,13,06,50,15.10
2010,08,13,06,51,15.10
2010,08,13,06,52,15.10
2010,08,13,06,53,15.20
2010,08,13,06,54,15.20
2010,08,13,06,55,15.20
2010,08,13,06,56,15.20
2010,08,13,06,57,15.20
2010,08,13,06,58,15.20
2010,08,13,06,59,15.30
2010,08,13,07,00,15.30
2010,08,13,07,01,15.30
2010,08,13,07,02,15.30
2010,08,13,07,03,15.30
2010,08,13,07,04,15.40
2010,08,13,07,05,15.40
2010,08,13,07,06,15.50
2010,08,13,07,07,15.50
2010,08,13,07,08,15.60
2010,08,13,07,09,15.60
2010,08,13,07,10,15.70
2010,08,13,07,11,15.80
2010,08,13,07,12,15.90
2010,08,13,07,13,16.00
2010,08,13,07,14,16.10
2010,08,13,07,15,16.20
2010,08,13,07,16,16.30
2010,08,13,07,17,16.30
2010,08,13,07,18,16.40
2010,08,13,07,19,16.50
2010,08,13,07,20,16.60
2010,08,13,07,21,16.70
2010,08,13,07,22,16.70
2010,08,13,07,23,16.70
2010,08,13,07,24,16.80
2010,08,13,07,25,16.80
2010,08,13,07,26,16.80
2010,08,13,07,27,16.90
2010,08,13,07,28,16.90
2010,08,13,07,29,16.90
2010,08,13,07,30,16.90
2010,08,13,07,31,17.00
2010,08,13,07,32,17.00
2010,08,13,07,33,17.00
2010,08,13,07,34,17.00
2010,08,13,07,35,17.10
2010,08,13,07,36,17.10
2010,08,13,07,37,17.20
2010,08,13,07,38,17.20
2010,08,13,07,39,17.30
2010,08,13,07,40,17.30
2010,08,13,07,41,17.30
2010,08,13,07,42,17.40
2010,08,13,07,43,17.40
2010,08,13,07,44,17.50
2010,08,13,07,45,17.50
2010,08,13,07,46,17.50
2010,08,13,07,47,17.60
2010,08,13,07,48,17.70
2010,08,13,07,49,17.70
2010,08,13,07,50,17.70
2010,08,13,07,51,17.80
2010,08,13,07,52,17.90
2010,08,13,07,53,17.90
2010,08,13,07,54,17.90
2010,08,13,07,55,17.90
2010,08,13,07,56,17.90
2010,08,13,07,57,18.10
2010,08,13,07,58,18.10
2010,08,13,07,59,18.10
2010,08,13,08,00,18.20
2010,08,13,08,01,18.20
2010,08,13,08,02,18.20
2010,08,13,08,03,18.20
2010,08,13,08,04,18.30
2010,08,13,08,05,18.30
2010,08,13,08,06,18.30
2010,08,13,08,07,18.40
2010,08,13,08,08,18.40
2010,08,13,08,09,18.50
2010,08,13,08,10,18.50
2010,08,13,08,11,18.50
2010,08,13,08,12,18.60
2010,08,13,08,13,18.60
2010,08,13,08,14,18.60
2010,08,13,08,15,18.70
2010,08,13,08,16,18.70
2010,08,13,08,17,18.80
2010,08,13,08,18,18.80
2010,08,13,08,19,18.90
2010,08,13,08,20,18.90
2010,08,13,08,21,18.90
2010,08,13,08,22,19.10
2010,08,13,08,23,19.10
2010,08,13,08,24,19.10
2010,08,13,08,25,19.10
2010,08,13,08,26,19.10
2010,08,13,08,27,19.20
2010,08,13,08,28,19.20
2010,08,13,08,29,19.20
2010,08,13,08,30,19.30
2010,08,13,08,31,19.30
2010,08,13,08,32,19.30
2010,08,13,08,33,19.40
2010,08,13,08,34,19.40
2010,08,13,08,35,19.40
2010,08,13,08,36,19.50
2010,08,13,08,37,19.50
2010,08,13,08,38,19.60
2010,08,13,08,39,19.60
2010,08,13,08,40,19.60
2010,08,13,08,41,19.70
2010,08,13,08,42,19.70
2010,08,13,08,43,19.70
2010,08,13,08,44,19.80
2010,08,13,08,45,19.80
2010,08,13,08,46,19.80
2010,08,13,08,47,19.80
2010,08,13,08,48,19.90
2010,08,13,08,49,19.90
2010,08,13,08,50,19.90
2010,08,13,08,51,20.00
2010,08,13,08,52,20.10
2010,08,13,08,53,20.20
2010,08,13,08,54,20.30
2010,08,13,08,55,20.30
2010,08,13,08,56,20.40
2010,08,13,08,57,20.50
2010,08,13,08,58,20.50
2010,08,13,08,59,20.60
2010,08,13,09,00,20.70
2010,08,13,09,01,20.80
2010,08,13,09,02,20.80
2010,08,13,09,03,20.90
2010,08,13,09,04,20.90
2010,08,13,09,05,21.00
2010,08,13,09,06,21.00
2010,08,13,09,07,21.00
2010,08,13,09,08,21.10
2010,08,13,09,09,21.10
2010,08,13,09,10,21.10
2010,08,13,09,11,21.20
2010,08,13,09,12,21.20
2010,08,13,09,13,21.20
2010,08,13,09,14,21.20
2010,08,13,09,15,21.20
2010,08,13,09,16,21.20
2010,08,13,09,17,21.20
2010,08,13,09,18,21.30
2010,08,13,09,19,21.30
2010,08,13,09,20,21.30
2010,08,13,09,21,21.40
2010,08,13,09,22,21.50
2010,08,13,09,23,21.60
2010,08,13,09,24,21.60
2010,08,13,09,25,21.60
2010,08,13,09,26,21.60
2010,08,13,09,27,21.60
2010,08,13,09,28,21.50
2010,08,13,09,29,21.40
2010,08,13,09,30,21.40
2010,08,13,09,31,21.40
2010,08,13,09,32,21.30
2010,08,13,09,33,21.30
2010,08,13,09,34,21.40
2010,08,13,09,35,21.40
2010,08,13,09,36,21.50
2010,08,13,09,37,21.60
2010,08,13,09,38,21.70
2010,08,13,09,39,21.80
2010,08,13,09,40,21.90
2010,08,13,09,41,21.80
2010,08,13,09,42,21.80
2010,08,13,09,43,21.90
2010,08,13,09,44,21.90
2010,08,13,09,45,21.90
2010,08,13,09,46,21.90
2010,08,13,09,47,21.90
2010,08,13,09,48,22.00
2010,08,13,09,49,22.00
2010,08,13,09,50,22.10
2010,08,13,09,51,22.20
2010,08,13,09,52,22.20
2010,08,13,09,53,22.30
2010,08,13,09,54,22.30
2010,08,13,09,55,22.40
2010,08,13,09,56,22.50
2010,08,13,09,57,22.60
2010,08,13,09,58,22.70
2010,08,13,09,59,22.70
2010,08,13,10,00,22.80
2010,08,13,10,01,22.70
2010,08,13,10,02,22.70
2010,08,13,10,03,22.70
2010,08,13,10,04,22.80
2010,08,13,10,05,22.80
2010,08,13,10,06,22.80
2010,08,13,10,07,22.70
2010,08,13,10,08,22.70
2010,08,13,10,09,22.60
2010,08,13,10,10,22.60
2010,08,13,10,11,22.60
2010,08,13,10,12,22.60
2010,08,13,10,13,22.60
2010,08,13,10,14,22.50
2010,08,13,10,15,22.50
2010,08,13,10,16,22.60
2010,08,13,10,17,22.70
2010,08,13,10,18,22.70
2010,08,13,10,19,22.80
2010,08,13,10,20,22.80
2010,08,13,10,21,22.80
2010,08,13,10,22,22.80
2010,08,13,10,23,22.70
2010,08,13,10,24,22.60
2010,08,13,10,25,22.60
2010,08,13,10,26,22.60
2010,08,13,10,27,22.70
2010,08,13,10,28,22.70
2010,08,13,10,29,22.70
2010,08,13,10,30,22.70
2010,08,13,10,31,22.80
2010,08,13,10,32,22.80
2010,08,13,10,33,22.80
2010,08,13,10,34,22.80
2010,08,13,10,35,22.80
2010,08,13,10,36,22.90
2010,08,13,10,37,22.90
2010,08,13,10,38,22.90
2010,08,13,10,39,22.90
2010,08,13,10,40,22.90
2010,08,13,10,41,22.80
2010,08,13,10,42,22.70
2010,08,13,10,43,22.70
2010,08,13,10,44,22.70
2010,08,13,10,45,22.70
2010,08,13,10,46,22.70
2010,08,13,10,47,22.70
2010,08,13,10,48,22.80
2010,08,13,10,49,22.80
2010,08,13,10,50,22.90
2010,08,13,10,51,22.90
2010,08,13,10,52,22.90
2010,08,13,10,53,22.90
2010,08,13,10,54,22.80
2010,08,13,10,55,22.80
2010,08,13,10,56,22.80
2010,08,13,10,57,22.80
2010,08,13,10,58,22.80
2010,08,13,10,59,22.90
2010,08,13,11,00,22.90
2010,08,13,11,01,23.10
2010,08,13,11,02,23.20
2010,08,13,11,03,23.30
2010,08,13,11,04,23.40
2010,08,13,11,05,23.50
2010,08,13,11,06,23.70
2010,08,13,11,07,23.70
2010,08,13,11,08,23.80
2010,08,13,11,09,23.90
2010,08,13,11,10,23.90
2010,08,13,11,11,23.90
2010,08,13,11,12,24.10
2010,08,13,11,13,24.10
2010,08,13,11,14,24.10
2010,08,13,11,15,24.10
2010,08,13,11,16,24.10
2010,08,13,11,17,24.20
2010,08,13,11,18,24.10
2010,08,13,11,19,24.10
2010,08,13,11,20,24.10
2010,08,13,11,21,24.10
2010,08,13,11,22,24.10
2010,08,13,11,23,24.10
2010,08,13,11,24,24.10
2010,08,13,11,25,24.00
2010,08,13,11,26,23.90
2010,08,13,11,27,23.90
2010,08,13,11,28,24.10
2010,08,13,11,29,24.20
2010,08,13,11,30,24.30
2010,08,13,11,31,24.30
2010,08,13,11,32,24.30
2010,08,13,11,33,24.40
2010,08,13,11,34,24.40
2010,08,13,11,35,24.30
2010,08,13,11,36,24.30
2010,08,13,11,37,24.20
2010,08,13,11,38,24.20
2010,08,13,11,39,24.30
2010,08,13,11,40,24.50
2010,08,13,11,41,24.60
2010,08,13,11,42,24.60
2010,08,13,11,43,24.70
2010,08,13,11,44,24.70
2010,08,13,11,45,24.70
2010,08,13,11,46,24.80
2010,08,13,11,47,24.80
2010,08,13,11,48,24.90
2010,08,13,11,49,24.80
2010,08,13,11,50,24.80
2010,08,13,11,51,24.80
2010,08,13,11,52,24.90
2010,08,13,11,53,25.00
2010,08,13,11,54,25.10
2010,08,13,11,55,25.00
2010,08,13,11,56,25.00
2010,08,13,11,57,25.10
2010,08,13,11,58,25.20
2010,08,13,11,59,25.30
2010,08,13,12,00,25.30
2010,08,13,12,01,25.40
2010,08,13,12,02,25.40
2010,08,13,12,03,25.30
2010,08,13,12,04,25.40
2010,08,13,12,05,25.40
2010,08,13,12,06,25.40
2010,08,13,12,07,25.40
2010,08,13,12,08,25.50
2010,08,13,12,09,25.60
2010,08,13,12,10,25.60
2010,08,13,12,11,25.60
2010,08,13,12,12,25.60
2010,08,13,12,13,25.60
2010,08,13,12,14,25.70
2010,08,13,12,15,25.70
2010,08,13,12,16,25.70
2010,08,13,12,17,25.60
2010,08,13,12,18,25.60
2010,08,13,12,19,25.60
2010,08,13,12,20,25.60
2010,08,13,12,21,25.70
2010,08,13,12,22,25.70
2010,08,13,12,23,25.90
2010,08,13,12,24,25.90
2010,08,13,12,25,26.00
2010,08,13,12,26,26.00
2010,08,13,12,27,26.10
2010,08,13,12,28,26.10
2010,08,13,12,29,26.20
2010,08,13,12,30,26.30
2010,08,13,12,31,26.40
2010,08,13,12,32,26.60
2010,08,13,12,33,26.80
2010,08,13,12,34,26.90
2010,08,13,12,35,26.90
2010,08,13,12,36,26.80
2010,08,13,12,37,26.80
2010,08,13,12,38,26.80
2010,08,13,12,39,26.60
2010,08,13,12,40,26.60
2010,08,13,12,41,26.60
2010,08,13,12,42,26.60
2010,08,13,12,43,26.60
2010,08,13,12,44,26.60
2010,08,13,12,45,26.50
2010,08,13,12,46,26.40
2010,08,13,12,47,26.40
2010,08,13,12,48,26.30
2010,08,13,12,49,26.20
2010,08,13,12,50,26.20
2010,08,13,12,51,26.20
2010,08,13,12,52,26.10
2010,08,13,12,53,26.10
2010,08,13,12,54,26.10
2010,08,13,12,55,26.10
2010,08,13,12,56,26.10
2010,08,13,12,57,26.10
2010,08,13,12,58,26.10
2010,08,13,12,59,26.10
2010,08,13,13,00,26.20
2010,08,13,13,01,26.20
2010,08,13,13,02,26.30
2010,08,13,13,03,26.30
2010,08,13,13,04,26.30
2010,08,13,13,05,26.40
2010,08,13,13,06,26.40
2010,08,13,13,07,26.40
2010,08,13,13,08,26.30
2010,08,13,13,09,26.30
2010,08,13,13,10,26.30
2010,08,13,13,11,26.40
2010,08,13,13,12,26.60
2010,08,13,13,13,26.60
2010,08,13,13,14,26.60
2010,08,13,13,15,26.60
2010,08,13,13,16,26.60
2010,08,13,13,17,26.60
2010,08,13,13,18,26.60
2010,08,13,13,19,26.80
2010,08,13,13,20,26.90
2010,08,13,13,21,27.10
2010,08,13,13,22,27.10
2010,08,13,13,23,27.20
2010,08,13,13,24,27.20
2010,08,13,13,25,27.30
2010,08,13,13,26,27.30
2010,08,13,13,27,27.40
2010,08,13,13,28,27.50
2010,08,13,13,29,27.60
2010,08,13,13,30,27.50
2010,08,13,13,31,27.40
2010,08,13,13,32,27.30
2010,08,13,13,33,27.30
2010,08,13,13,34,27.30
2010,08,13,13,35,27.30
2010,08,13,13,36,27.30
2010,08,13,13,37,27.30
2010,08,13,13,38,27.30
2010,08,13,13,39,27.30
2010,08,13,13,40,27.40
2010,08,13,13,41,27.50
2010,08,13,13,42,27.60
2010,08,13,13,43,27.70
2010,08,13,13,44,27.70
2010,08,13,13,45,27.70
2010,08,13,13,46,27.80
2010,08,13,13,47,27.70
2010,08,13,13,48,27.70
2010,08,13,13,49,27.60
2010,08,13,13,50,27.60
2010,08,13,13,51,27.50
2010,08,13,13,52,27.60
2010,08,13,13,53,27.70
2010,08,13,13,54,27.70
2010,08,13,13,55,27.70
2010,08,13,13,56,27.70
2010,08,13,13,57,27.70
2010,08,13,13,58,27.80
2010,08,13,13,59,27.90
2010,08,13,14,00,28.00
2010,08,13,14,01,28.20
2010,08,13,14,02,28.30
2010,08,13,14,03,28.40
2010,08,13,14,04,28.40
2010,08,13,14,05,28.50
2010,08,13,14,06,28.70
2010,08,13,14,07,28.50
2010,08,13,14,08,28.40
2010,08,13,14,09,28.30
2010,08,13,14,10,28.30
2010,08,13,14,11,28.10
2010,08,13,14,12,27.90
2010,08,13,14,13,27.90
2010,08,13,14,14,28.10
2010,08,13,14,15,28.20
2010,08,13,14,16,28.20
2010,08,13,14,17,28.20
2010,08,13,14,18,28.20
2010,08,13,14,19,28.20
2010,08,13,14,20,28.20
2010,08,13,14,21,28.20
2010,08,13,14,22,28.30
2010,08,13,14,23,28.40
2010,08,13,14,24,28.50
2010,08,13,14,25,28.70
2010,08,13,14,26,28.80
2010,08,13,14,27,28.80
2010,08,13,14,28,28.70
2010,08,13,14,29,28.50
2010,08,13,14,30,28.20
2010,08,13,14,31,27.90
2010,08,13,14,32,27.60
2010,08,13,14,33,27.50
2010,08,13,14,34,27.30
2010,08,13,14,35,27.20
2010,08,13,14,36,27.10
2010,08,13,14,37,27.10
2010,08,13,14,38,27.10
2010,08,13,14,39,27.10
2010,08,13,14,40,27.10
2010,08,13,14,41,27.20
2010,08,13,14,42,27.30
2010,08,13,14,43,27.30
2010,08,13,14,44,27.50
2010,08,13,14,45,27.60
2010,08,13,14,46,27.80
2010,08,13,14,47,27.90
2010,08,13,14,48,28.00
2010,08,13,14,49,28.00
2010,08,13,14,50,27.90
2010,08,13,14,51,27.80
2010,08,13,14,52,27.80
2010,08,13,14,53,27.80
2010,08,13,14,54,27.90
2010,08,13,14,55,27.90
2010,08,13,14,56,27.80
2010,08,13,14,57,27.60
2010,08,13,14,58,27.60
2010,08,13,14,59,27.40
2010,08,13,15,00,27.40
2010,08,13,15,01,27.30
2010,08,13,15,02,27.30
2010,08,13,15,03,27.30
2010,08,13,15,04,27.30
2010,08,13,15,05,27.30
2010,08,13,15,06,27.30
2010,08,13,15,07,27.20
2010,08,13,15,08,27.30
2010,08,13,15,09,27.30
2010,08,13,15,10,27.40
2010,08,13,15,11,27.60
2010,08,13,15,12,27.90
2010,08,13,15,13,28.10
2010,08,13,15,14,28.10
2010,08,13,15,15,28.10
2010,08,13,15,16,28.10
2010,08,13,15,17,28.20
2010,08,13,15,18,28.30
2010,08,13,15,19,28.50
2010,08,13,15,20,28.60
2010,08,13,15,21,28.80
2010,08,13,15,22,28.90
2010,08,13,15,23,29.00
2010,08,13,15,24,29.10
2010,08,13,15,25,29.20
2010,08,13,15,26,29.20
2010,08,13,15,27,29.30
2010,08,13,15,28,29.40
2010,08,13,15,29,29.40
2010,08,13,15,30,29.30
2010,08,13,15,31,29.30
2010,08,13,15,32,29.20
2010,08,13,15,33,29.20
2010,08,13,15,34,29.20
2010,08,13,15,35,29.30
2010,08,13,15,36,29.30
2010,08,13,15,37,29.40
2010,08,13,15,38,29.40
2010,08,13,15,39,29.50
2010,08,13,15,40,29.40
2010,08,13,15,41,29.30
2010,08,13,15,42,29.30
2010,08,13,15,43,29.40
2010,08,13,15,44,29.50
2010,08,13,15,45,29.60
2010,08,13,15,46,29.80
2010,08,13,15,47,29.90
2010,08,13,15,48,30.00
2010,08,13,15,49,30.10
2010,08,13,15,50,30.10
2010,08,13,15,51,30.00
2010,08,13,15,52,29.90
2010,08,13,15,53,29.80
2010,08,13,15,54,29.70
2010,08,13,15,55,29.70
2010,08,13,15,56,29.70
2010,08,13,15,57,29.90
2010,08,13,15,58,29.90
2010,08,13,15,59,30.00
2010,08,13,16,00,30.10
2010,08,13,16,01,30.00
2010,08,13,16,02,29.90
2010,08,13,16,03,29.90
2010,08,13,16,04,29.80
2010,08,13,16,05,29.70
2010,08,13,16,06,29.70
2010,08,13,16,07,29.60
2010,08,13,16,08,29.60
2010,08,13,16,09,29.70
2010,08,13,16,10,29.80
2010,08,13,16,11,30.00
2010,08,13,16,12,30.10
2010,08,13,16,13,30.20
2010,08,13,16,14,30.20
2010,08,13,16,15,30.20
2010,08,13,16,16,30.20
2010,08,13,16,17,30.20
2010,08,13,16,18,30.20
2010,08,13,16,19,30.20
2010,08,13,16,20,30.40
2010,08,13,16,21,30.60
2010,08,13,16,22,30.60
2010,08,13,16,23,30.70
2010,08,13,16,24,30.80
2010,08,13,16,25,30.90
2010,08,13,16,26,31.00
2010,08,13,16,27,31.10
2010,08,13,16,28,31.10
2010,08,13,16,29,31.10
2010,08,13,16,30,31.10
2010,08,13,16,31,31.10
2010,08,13,16,32,31.10
2010,08,13,16,33,31.10
2010,08,13,16,34,30.90
2010,08,13,16,35,30.80
2010,08,13,16,36,30.80
2010,08,13,16,37,30.70
2010,08,13,16,38,30.70
2010,08,13,16,39,30.70
2010,08,13,16,40,30.70
2010,08,13,16,41,30.70
2010,08,13,16,42,30.70
2010,08,13,16,43,30.70
2010,08,13,16,44,30.70
2010,08,13,16,45,30.70
2010,08,13,16,46,30.80
2010,08,13,16,47,30.80
2010,08,13,16,48,30.80
2010,08,13,16,49,30.90
2010,08,13,16,50,30.90
2010,08,13,16,51,30.90
2010,08,13,16,52,30.70
2010,08,13,16,53,30.40
2010,08,13,16,54,30.20
2010,08,13,16,55,30.10
2010,08,13,16,56,30.10
2010,08,13,16,57,30.10
2010,08,13,16,58,30.20
2010,08,13,16,59,30.20
2010,08,13,17,00,30.20
2010,08,13,17,01,30.30
2010,08,13,17,02,30.40
2010,08,13,17,03,30.40
2010,08,13,17,04,30.50
2010,08,13,17,05,30.60
2010,08,13,17,06,30.60
2010,08,13,17,07,30.70
2010,08,13,17,08,30.70
2010,08,13,17,09,30.80
2010,08,13,17,10,30.80
2010,08,13,17,11,30.80
2010,08,13,17,12,30.80
2010,08,13,17,13,30.60
2010,08,13,17,14,30.50
2010,08,13,17,15,30.30
2010,08,13,17,16,30.30
2010,08,13,17,17,30.20
2010,08,13,17,18,30.10
2010,08,13,17,19,30.10